Topeka, KS

4:32 AM CDT on September 25, 2016 (GMT -0500)
Billard Municipal

Weather History for KTOP - March, 2013

Change the Weather History Date:

Monday, March 25, 2013

  Actual Average Record
Temperature  
Mean Temperature 29 °F 48 °F  
Max Temperature 34 °F 60 °F 91 °F (1907)
Min Temperature 23 °F 36 °F 6 °F (1955)
Degree Days  
Heating Degree Days 36 17  
Month to date heating degree days 664 531  
Since 1 July heating degree days 4221 4498  
Cooling Degree Days 0 0  
Month to date cooling degree days 0 0  
Year to date cooling degree days 0 0  
Moisture  
Dew Point 20 °F    
Average Humidity 70    
Maximum Humidity 81    
Minimum Humidity 59    
Precipitation  
Precipitation T in 0.09 in 1.08 in (1959)
Month to date precipitation 1.98 1.89  
Year to date precipitation 4.42 4.07  
Snow  
Snow T in 0.00 in 5.40 in (1957)
Month to date snowfall 7.9 1.4  
Year to date snowfall 23.9 10.8  
Since 1 July snowfall 29.3 17.3  
Snow Depth 4.00 in    
Sea Level Pressure  
Sea Level Pressure 30.24 in    
Wind  
Wind Speed 14 mph (NW)    
Max Wind Speed 25 mph    
Max Gust Speed 32 mph    
Visibility 10 miles    
Events Snow    
T = Trace of Precipitation, MM = Missing Value Source: NWS Daily Summary

Daily Weather History Graph

Daily Weather History Graph

Search for Another Location

Airport or City:

Trip Planner

Search our weather history database for the weather conditions in past years. The results will help you decide how hot, cold, wet, or windy it might be!

Date:

Astronomy

Mar. 25, 2013 Rise Set
Actual Time 7:17 AM CDT 7:39 PM CDT
Civil Twilight 6:50 AM CDT 8:06 PM CDT
Nautical Twilight 6:19 AM CDT 8:37 PM CDT
Astronomical Twilight 5:47 AM CDT 9:10 PM CDT
Moon 6:12 PM CDT 6:00 AM CDT
Length of Visible Light 13h 15m
Length of Day
12h 22m
Waxing Gibbous, 96% of the Moon is Illuminated
Mar 25
Waxing Gibbous
Mar 27
Full
Apr 2
Last Quarter
Apr 10
New
Apr 18
First Quarter

Hourly Weather History & Observations

Time (CDT) Temp. Windchill Dew Point Humidity Pressure Visibility Wind Dir Wind Speed Gust Speed Precip Events Conditions
12:53 AM 24.1 °F 13.7 °F 14.0 °F 65% 30.15 in 10.0 mi WNW 10.4 mph - N/A   Clear
1:53 AM 24.1 °F 13.1 °F 15.1 °F 69% 30.14 in 10.0 mi WNW 11.5 mph 18.4 mph N/A   Overcast
2:53 AM 23.0 °F 12.4 °F 15.1 °F 72% 30.14 in 10.0 mi WNW 10.4 mph - N/A   Partly Cloudy
3:49 AM 24.8 °F 16.1 °F 15.8 °F 69% 30.11 in 10.0 mi West 8.1 mph - N/A   Overcast
3:53 AM 24.1 °F 15.2 °F 16.0 °F 71% 30.14 in 10.0 mi West 8.1 mph - N/A   Overcast
4:53 AM 26.1 °F 15.6 °F 19.0 °F 75% 30.14 in 7.0 mi WNW 11.5 mph - N/A   Overcast
5:53 AM 27.0 °F 16.1 °F 19.9 °F 75% 30.16 in 5.0 mi WNW 12.7 mph - 0.00 in   Haze
6:53 AM 27.0 °F 15.2 °F 19.9 °F 75% 30.17 in 10.0 mi WNW 15.0 mph - N/A   Mostly Cloudy
7:03 AM 27.0 °F 14.7 °F 19.9 °F 75% 30.15 in 10.0 mi NW 16.1 mph - N/A   Mostly Cloudy
7:44 AM 27.0 °F 16.7 °F 19.9 °F 75% 30.17 in 10.0 mi WNW 11.5 mph - N/A   Mostly Cloudy
7:53 AM 27.0 °F 15.2 °F 21.0 °F 78% 30.19 in 10.0 mi WNW 15.0 mph 20.7 mph N/A   Mostly Cloudy
8:32 AM 28.0 °F 15.7 °F 21.0 °F 75% 30.19 in 10.0 mi NW 17.3 mph 24.2 mph N/A   Overcast
8:53 AM 28.0 °F 16.1 °F 21.0 °F 75% 30.23 in 10.0 mi WNW 16.1 mph 23.0 mph N/A   Mostly Cloudy
9:16 AM 28.0 °F 16.5 °F 19.9 °F 72% 30.20 in 10.0 mi WNW 15.0 mph 24.2 mph N/A   Mostly Cloudy
9:53 AM 30.0 °F 16.6 °F 19.0 °F 64% 30.25 in 10.0 mi NW 23.0 mph 32.2 mph N/A   Scattered Clouds
10:01 AM 30.0 °F 16.6 °F 19.0 °F 64% 30.22 in 10.0 mi NW 23.0 mph 31.1 mph N/A   Mostly Cloudy
10:53 AM 30.0 °F 18.7 °F 19.9 °F 66% 30.27 in 10.0 mi NW 16.1 mph - N/A   Overcast
11:19 AM 30.0 °F 16.3 °F 19.0 °F 64% 30.25 in 10.0 mi NW 24.2 mph 32.2 mph N/A   Overcast
11:29 AM 30.9 °F 19.8 °F 19.9 °F 64% 30.25 in 10.0 mi NNW 16.1 mph 27.6 mph N/A   Overcast
11:39 AM 30.9 °F 18.4 °F 19.9 °F 64% 30.25 in 10.0 mi NW 20.7 mph 25.3 mph N/A   Overcast
11:53 AM 30.9 °F 18.1 °F 19.0 °F 61% 30.28 in 10.0 mi NW 21.9 mph 31.1 mph N/A   Overcast
12:53 PM 30.9 °F 18.1 °F 19.9 °F 64% 30.29 in 10.0 mi NW 21.9 mph 26.5 mph N/A   Overcast
1:53 PM 32.0 °F 20.1 °F 19.9 °F 61% 30.29 in 10.0 mi WNW 19.6 mph 26.5 mph N/A   Overcast
2:53 PM 33.1 °F 20.9 °F 23.0 °F 66% 30.28 in 10.0 mi WNW 21.9 mph 27.6 mph 0.00 in   Overcast
3:53 PM 34.0 °F 23.4 °F 21.9 °F 61% 30.28 in 10.0 mi NW 17.3 mph 26.5 mph 0.00 in   Overcast
4:30 PM 34.0 °F 23.8 °F 23.0 °F 64% 30.26 in 10.0 mi NW 16.1 mph - N/A   Overcast
4:53 PM 34.0 °F 23.8 °F 21.9 °F 61% 30.30 in 10.0 mi NW 16.1 mph - N/A   Overcast
5:14 PM 34.0 °F 25.0 °F 23.0 °F 64% 30.27 in 5.0 mi NW 12.7 mph - 0.00 in Snow Light Snow
5:53 PM 33.1 °F 23.4 °F 24.1 °F 70% 30.31 in 5.0 mi NW 13.8 mph - 0.00 in Snow Light Snow
6:53 PM 33.1 °F 24.4 °F 23.0 °F 66% 30.32 in 10.0 mi NW 11.5 mph - 0.00 in   Partly Cloudy
7:53 PM 30.9 °F 24.3 °F 23.0 °F 72% 30.35 in 10.0 mi NNW 6.9 mph - 0.00 in   Scattered Clouds
8:53 PM 30.0 °F 22.4 °F 23.0 °F 75% 30.36 in 10.0 mi NW 8.1 mph - N/A   Partly Cloudy
9:53 PM 30.0 °F 23.2 °F 21.9 °F 72% 30.38 in 10.0 mi WNW 6.9 mph - N/A   Mostly Cloudy
10:53 PM 28.9 °F 21.9 °F 21.0 °F 72% 30.39 in 10.0 mi NW 6.9 mph - N/A   Clear
11:53 PM 28.9 °F 21.1 °F 19.9 °F 69% 30.40 in 10.0 mi WNW 8.1 mph - N/A   Overcast